Location: Bonny Doon Airfield
(37.0704°N, 122.1252°W)
Time: 12:20:41
(UTC-08:00)

Hubble Space Telescope - Pass Details

Date: 08 October 2017
Orbit: 538 x 541 km, 28.5° (Epoch: 12 December)

Event Time Altitude Azimuth Distance (km) Brightness Sun altitude
Exits shadow 05:38:32 21° 197° (SSW) 1,221 2.3 -19.1°
Maximum altitude 05:38:56 22° 188° (S) 1,210 2.4 -19.0°
Drops below altitude 10° 05:42:08 10° 138° (SE) 1,786 3.9 -18.4°
Sets 05:44:46 0° 122° (ESE) 2,676 5.2 -17.8°
